| time (UTC) | temp C | wind direction | speed KPH | gust KPH | rain 1hr cm | rain 24hr cm | rain mn cm | humidity % | barometer mb |
| 20260506044537 | 8 | 212 | 6.4 | 14.5 | 0.00 | 0.15 | 0.15 | 77 | 1010.3 |
| 20260506043035 | 8 | 211 | 8.0 | 19.3 | 0.00 | 0.15 | 0.15 | 76 | 1009.9 |
| 20260506041537 | 7 | 229 | 9.7 | 17.7 | 0.00 | 0.15 | 0.15 | 80 | 1009.3 |
| 20260506040029 | 8 | 211 | 14.5 | 22.5 | 0.00 | 0.15 | 0.15 | 79 | 1009.0 |
| 20260506034524 | 8 | 197 | 11.3 | 19.3 | 0.00 | 0.15 | 0.15 | 79 | 1008.6 |
| 20260506033027 | 8 | 219 | 11.3 | 20.9 | 0.00 | 0.15 | 0.15 | 79 | 1008.3 |
| 20260506031552 | 8 | 265 | 8.0 | 14.5 | 0.00 | 0.15 | 0.15 | 81 | 1008.0 |
| 20260506030045 | 8 | 179 | 9.7 | 17.7 | 0.00 | 0.15 | 0.15 | 80 | 1007.8 |
| 20260506024541 | 9 | 199 | 4.8 | 14.5 | 0.00 | 0.15 | 0.15 | 78 | 1007.7 |
| 20260506023034 | 10 | 226 | 9.7 | 17.7 | 0.00 | 0.15 | 0.15 | 72 | 1007.5 |
| 20260506021534 | 11 | 216 | 12.9 | 19.3 | 0.00 | 0.15 | 0.15 | 70 | 1007.1 |
| 20260506020033 | 12 | 201 | 9.7 | 20.9 | 0.00 | 0.15 | 0.15 | 69 | 1007.0 |
| 20260506014542 | 12 | 248 | 9.7 | 19.3 | 0.00 | 0.15 | 0.15 | 67 | 1006.8 |
| 20260506013031 | 12 | 231 | 11.3 | 19.3 | 0.00 | 0.15 | 0.15 | 66 | 1006.8 |
| 20260506011527 | 12 | 194 | 9.7 | 17.7 | 0.00 | 0.15 | 0.15 | 68 | 1006.6 |
| 20260506010029 | 12 | 179 | 11.3 | 22.5 | 0.00 | 0.15 | 0.15 | 66 | 1006.3 |
| 20260506004536 | 12 | 219 | 12.9 | 22.5 | 0.03 | 0.15 | 0.15 | 64 | 1006.1 |
| 20260506003027 | 12 | 242 | 9.7 | 17.7 | 0.03 | 0.15 | 0.15 | 75 | 1005.9 |
| 20260506001523 | 11 | 149 | 1.6 | 6.4 | 0.03 | 0.15 | 0.15 | 76 | 1006.5 |
| 20260506000028 | 10 | 96 | 1.6 | 8.0 | 0.03 | 0.15 | 0.15 | 75 | 1006.7 |
| 20260505234521 | 10 | 246 | 4.8 | 11.3 | 0.00 | 0.13 | 0.13 | 73 | 1006.5 |
| 20260505233021 | 11 | 207 | 6.4 | 14.5 | 0.00 | 0.13 | 0.13 | 67 | 1006.4 |
| 20260505231554 | 11 | 222 | 8.0 | 14.5 | 0.00 | 0.13 | 0.13 | 68 | 1006.4 |
| 20260505230100 | 11 | 189 | 9.7 | 17.7 | 0.10 | 0.13 | 0.13 | 73 | 1006.3 |
| 20260505224532 | 11 | 203 | 6.4 | 17.7 | 0.13 | 0.13 | 0.13 | 81 | 1006.3 |
| 20260505223018 | 10 | 148 | 4.8 | 12.9 | 0.13 | 0.13 | 0.13 | 82 | 1006.6 |
| 20260505221512 | 10 | 110 | 1.6 | 6.4 | 0.13 | 0.13 | 0.13 | 77 | 1006.7 |
| 20260505220022 | 12 | 341 | 6.4 | 14.5 | 0.03 | 0.03 | 0.03 | 68 | 1007.2 |
| 20260505214509 | 13 | 197 | 3.2 | 12.9 | 0.00 | 0.00 | 0.00 | 53 | 1006.3 |
| 20260505213003 | 13 | 231 | 11.3 | 19.3 | 0.00 | 0.00 | 0.00 | 49 | 1006.1 |
| 20260505211502 | 15 | 226 | 12.9 | 20.9 | 0.00 | 0.00 | 0.00 | 47 | 1006.1 |
| 20260505210108 | 15 | 214 | 9.7 | 20.9 | 0.00 | 0.00 | 0.00 | 47 | 1006.2 |
| 20260505204559 | 16 | 211 | 11.3 | 24.1 | 0.00 | 0.00 | 0.00 | 45 | 1006.1 |
| 20260505203055 | 16 | 198 | 11.3 | 20.9 | 0.00 | 0.00 | 0.00 | 46 | 1006.2 |
| 20260505201557 | 15 | 250 | 8.0 | 16.1 | 0.00 | 0.00 | 0.00 | 49 | 1006.3 |
| 20260505200019 | 14 | 251 | 6.4 | 16.1 | 0.00 | 0.00 | 0.00 | 51 | 1006.6 |
| 20260505194518 | 13 | 271 | 8.0 | 16.1 | 0.00 | 0.00 | 0.00 | 51 | 1006.9 |
| 20260505193034 | 13 | 208 | 12.9 | 20.9 | 0.00 | 0.00 | 0.00 | 51 | 1006.8 |
| 20260505191510 | 14 | 193 | 6.4 | 19.3 | 0.00 | 0.00 | 0.00 | 51 | 1006.6 |
| 20260505190020 | 13 | 250 | 6.4 | 16.1 | 0.00 | 0.00 | 0.00 | 53 | 1006.5 |
| 20260505184502 | 13 | 219 | 3.2 | 20.9 | 0.00 | 0.00 | 0.00 | 53 | 1006.6 |
| 20260505183056 | 13 | 179 | 6.4 | 22.5 | 0.00 | 0.00 | 0.00 | 53 | 1006.5 |
| 20260505181551 | 12 | 251 | 9.7 | 20.9 | 0.00 | 0.00 | 0.00 | 56 | 1006.5 |
| 20260505180050 | 13 | 191 | 9.7 | 22.5 | 0.00 | 0.00 | 0.00 | 54 | 1006.3 |
| 20260505174543 | 13 | 194 | 14.5 | 25.7 | 0.00 | 0.00 | 0.00 | 53 | 1006.2 |
| 20260505173040 | 12 | 203 | 11.3 | 20.9 | 0.00 | 0.00 | 0.00 | 55 | 1006.3 |
| 20260505171536 | 12 | 232 | 11.3 | 20.9 | 0.00 | 0.00 | 0.00 | 55 | 1006.2 |
| 20260505170024 | 12 | 207 | 9.7 | 19.3 | 0.00 | 0.00 | 0.00 | 53 | 1005.9 |
| 20260505164532 | 13 | 229 | 11.3 | 22.5 | 0.00 | 0.00 | 0.00 | 52 | 1005.9 |
| 20260505163046 | 12 | 240 | 14.5 | 20.9 | 0.00 | 0.00 | 0.00 | 54 | 1006.0 |
| 20260505161542 | 11 | 231 | 12.9 | 22.5 | 0.00 | 0.00 | 0.00 | 55 | 1005.9 |
| 20260505153108 | 10 | 207 | 9.7 | 22.5 | 0.00 | 0.00 | 0.00 | 63 | 1005.6 |
| 20260505151552 | 10 | 220 | 9.7 | 20.9 | 0.00 | 0.00 | 0.00 | 64 | 1005.5 |
| 20260505150107 | 10 | 226 | 9.7 | 16.1 | 0.00 | 0.00 | 0.00 | 64 | 1005.5 |
| 20260505124501 | -17 | 0.0 | 0.0 | 0.00 | 0.00 | 0.00 | 1004.6 | ||
| 20260505123110 | -17 | 0.0 | 0.0 | 0.00 | 0.00 | 0.00 | 1004.6 | ||
| 20260505121550 | -17 | 0.0 | 0.0 | 0.00 | 0.00 | 0.00 | 1004.6 | ||
| 20260505120051 | -17 | 0.0 | 0.0 | 0.00 | 0.00 | 0.00 | 1004.9 | ||
| 20260505114552 | -17 | 0.0 | 0.0 | 0.00 | 0.00 | 0.00 | 1005.1 | ||
| 20260505113036 | -67 | 263 | 4.8 | 9.7 | 0.00 | 0.00 | 0.00 | 78 | 1004.8 |
| 20260505111533 | 6 | 198 | 8.0 | 16.1 | 0.00 | 0.00 | 0.00 | 79 | 1004.7 |
| 20260505101556 | 6 | 228 | 8.0 | 16.1 | 0.00 | 0.00 | 0.00 | 82 | 1004.1 |
| 20260505100101 | 6 | 213 | 6.4 | 14.5 | 0.00 | 0.00 | 0.00 | 83 | 1004.1 |
| 20260505094520 | 6 | 188 | 6.4 | 17.7 | 0.00 | 0.00 | 0.00 | 82 | 1004.3 |
| 20260505093018 | 7 | 233 | 11.3 | 19.3 | 0.00 | 0.00 | 0.00 | 83 | 1004.3 |
| 20260505091549 | 7 | 197 | 11.3 | 20.9 | 0.00 | 0.00 | 0.00 | 84 | 1004.3 |
| 20260505090052 | 7 | 183 | 11.3 | 24.1 | 0.00 | 0.00 | 0.00 | 84 | 1004.5 |
| 20260505084541 | 7 | 198 | 11.3 | 24.1 | 0.00 | 0.00 | 0.00 | 83 | 1004.8 |
| 20260505083037 | 7 | 202 | 12.9 | 24.1 | 0.00 | 0.00 | 0.00 | 81 | 1004.8 |
| 20260505081542 | 7 | 221 | 14.5 | 25.7 | 0.00 | 0.00 | 0.00 | 80 | 1004.7 |
| 20260505080046 | 7 | 189 | 12.9 | 24.1 | 0.00 | 0.00 | 0.00 | 77 | 1004.6 |
| 20260505074559 | 7 | 185 | 11.3 | 22.5 | 0.00 | 0.00 | 0.00 | 77 | 1004.3 |
| 20260505073100 | 7 | 200 | 16.1 | 24.1 | 0.00 | 0.00 | 0.00 | 76 | 1004.4 |
| 20260505071555 | 8 | 195 | 16.1 | 27.4 | 0.00 | 0.00 | 0.00 | 74 | 1004.4 |
| 20260505070054 | 8 | 184 | 16.1 | 27.4 | 0.00 | 0.00 | 0.00 | 70 | 1004.3 |
| 20260505064548 | 8 | 206 | 17.7 | 25.7 | 0.00 | 0.00 | 0.00 | 69 | 1004.1 |
| 20260505063045 | 8 | 194 | 14.5 | 24.1 | 0.00 | 0.00 | 0.00 | 67 | 1004.0 |
| 20260505061541 | 8 | 203 | 12.9 | 20.9 | 0.00 | 0.00 | 0.00 | 66 | 1004.3 |
| 20260505060037 | 9 | 216 | 11.3 | 24.1 | 0.00 | 0.00 | 0.00 | 65 | 1004.1 |
| 20260505054534 | 10 | 214 | 9.7 | 24.1 | 0.00 | 0.00 | 0.00 | 63 | 1004.1 |
| 20260505053031 | 10 | 182 | 11.3 | 19.3 | 0.00 | 0.00 | 0.00 | 61 | 1004.2 |
| 20260505051526 | 10 | 203 | 4.8 | 16.1 | 0.00 | 0.00 | 0.00 | 61 | 1004.5 |